This is the latest recevied weather packets stored in our database for station/object KI5BDI. If no packets are shown the sender has not sent any weather packets the latest 10 day(s).
| Time | Temp. | Humidity | Pressure | Rain* | Wind** | Luminosity | Snow |
|---|---|---|---|---|---|---|---|
| 1777830320 | 25° C | 58% | 1019.5 hPa | 0 mm | - | 1065 W/m² | - |
| 1777824322 | 23.33° C | 59% | 1020.4 hPa | 0 mm | - | 903 W/m² | - |
| 1777821319 | 21.67° C | 64% | 1020.6 hPa | 0 mm | - | 762 W/m² | - |
| 1777820119 | 21.11° C | 65% | 1020.6 hPa | 0 mm | - | 681 W/m² | - |
| 1777818919 | 20° C | 69% | 1020.8 hPa | 0 mm | - | 601 W/m² | - |
| 1777818319 | 19.44° C | 71% | 1020.8 hPa | 0 mm | - | 554 W/m² | - |
| 1777811124 | 8.33° C | 99% | 1020.5 hPa | 0 mm | - | 85 W/m² | - |
| 1777809325 | 7.78° C | 98% | 1020.2 hPa | 0 mm | - | 20 W/m² | - |
| 1777805126 | 7.78° C | 98% | 1019.6 hPa | 0 mm | - | 0 W/m² | - |
| 1777802726 | 8.33° C | 98% | 1019.6 hPa | 0 mm | - | 0 W/m² | - |
| 1777789530 | 10.56° C | 96% | 1019.4 hPa | 0 mm | - | 0 W/m² | - |
| 1777773940 | 15° C | 84% | 1018.5 hPa | 0 mm | - | 0 W/m² | - |
| 1777770318 | 20.56° C | 68% | 1017.9 hPa | 0 mm | - | 7 W/m² | - |
| 1777767918 | 25° C | 50% | 1017.4 hPa | 0 mm | - | 59 W/m² | - |
| 1777763117 | 23.89° C | 46% | 1017.5 hPa | 0 mm | - | 310 W/m² | - |
| 1777761921 | 23.89° C | 47% | 1017.6 hPa | 0 mm | - | 388 W/m² | - |
| 1777758361 | 24.44° C | 48% | 1017.8 hPa | 0 mm | - | 618 W/m² | - |
| 1777757719 | 23.89° C | 48% | 1017.9 hPa | 0 mm | - | 655 W/m² | - |
| 1777755319 | 22.78° C | 50% | 1018.2 hPa | 0 mm | - | 793 W/m² | - |
| 1777751720 | 22.78° C | 52% | 1018.8 hPa | 0 mm | - | 949 W/m² | - |
| 1777750520 | 23.33° C | 50% | 1018.9 hPa | 0 mm | - | 995 W/m² | - |
| 1777747521 | 22.78° C | 49% | 1019.4 hPa | 0 mm | - | 1060 W/m² | - |
| 1777746318 | 22.22° C | 50% | 1019.8 hPa | 0 mm | - | 956 W/m² | - |
| 1777745118 | 21.67° C | 51% | 1019.9 hPa | 0 mm | - | 1077 W/m² | - |
| 1777743919 | 21.67° C | 53% | 1020.1 hPa | 0 mm | - | 1068 W/m² | - |
* Rain latest hour (hover to see other rain measurements)
** Current wind speed in m/s (hover to see current wind gust speed)